Location: Bolzano
(46.5015°N, 11.3369°E)
Time: 14:17:45
(UTC+02:00)

ISS - Visible Passes

Search period start: 17 July 2025 00:00
Search period end: 27 July 2025 00:00
Orbit: 415 x 418 km, 51.6° (Epoch: 17 July)

Date Brightness Start Highest point End Pass type
(mag) Time Alt. Az. Time Alt. Az. Time Alt. Az.
17 Jul -3.5 00:22:31 10° WNW 00:25:24 63° WNW 00:25:24 63° WNW visible
17 Jul -2.0 21:57:20 10° WNW 22:00:24 32° N 22:03:28 10° ENE visible
17 Jul -3.4 23:34:13 10° WNW 23:37:33 61° NNE 23:38:30 40° E visible
18 Jul -0.9 01:11:15 10° W 01:11:22 11° W 01:11:22 11° W visible
18 Jul -2.9 22:45:54 10° WNW 22:49:10 46° NNE 22:51:38 16° E visible
19 Jul -2.1 00:22:43 10° WNW 00:24:31 26° W 00:24:31 26° W visible
19 Jul -2.5 21:57:34 10° WNW 22:00:44 38° NNE 22:03:54 10° E visible
19 Jul -3.8 23:34:19 10° WNW 23:37:39 66° SSW 23:37:41 66° SSW visible
20 Jul -3.8 22:45:58 10° WNW 22:49:19 83° NNE 22:50:54 29° ESE visible
21 Jul -1.1 00:23:22 10° W 00:23:47 12° W 00:23:47 12° W visible
21 Jul -3.3 21:57:37 10° WNW 22:00:57 59° NNE 22:04:08 11° ESE visible
21 Jul -2.3 23:34:36 10° W 23:37:01 27° WSW 23:37:01 27° WSW visible
22 Jul -3.2 22:46:04 10° WNW 22:49:16 44° SW 22:50:17 33° SSE visible
23 Jul -3.7 21:57:37 10° WNW 22:00:58 70° SSW 22:03:35 15° SE visible
23 Jul -1.1 23:35:51 10° WSW 23:36:29 11° WSW 23:36:29 11° WSW visible
24 Jul -1.9 22:46:33 10° W 22:49:00 19° SW 22:49:50 17° SSW visible
25 Jul -2.4 21:57:47 10° WNW 22:00:45 30° SW 22:03:13 13° SSE visible
